Regional Weather Roundup
Issued by NWS

Home | Current Version | Previous Version | Graphics & Text | Print | Product List | Glossary On
Versions: 1 2 3 4 5 6 7 8 9 10 11 12 13 14 15 16 17 18 19 20 21 22 23 24 25 26 27
000
ASUS45 KCYS 191510
RWRWY

WYOMING REGIONAL WEATHER ROUNDUP
NATIONAL WEATHER SERVICE CHEYENNE WY
800 AM MST THU JAN 19 2017

NOTE:  "FAIR" INDICATES FEW OR NO CLOUDS BELOW 12,000 FEET
WITH NO SIGNIFICANT WEATHER AND/OR OBSTRUCTIONS TO VISIBILITY.

WYZ001-191600-
YELLOWSTONE NATIONAL PARK

CITY           SKY/WX    TMP DP  RH WIND       PRES   REMARKS
LK YELLOWSTONE   N/A     20  19  96 CALM      29.70R
W YELLOWSTONE  NOT AVBL

$$
WYZ002>013-054>058-071-098>099-191600-
NORTHERN WYOMING

CITY           SKY/WX    TMP DP  RH WIND       PRES   REMARKS
JACKSON        MOCLDY    16  14  93 CALM      29.71R
CODY           FAIR      19  13  77 NE6       29.58R WCI  11
GREYBULL       FAIR       2  -2  83 CALM      29.61S
WORLAND        FAIR       7   5  91 SW6       29.59S WCI  -3
SHERIDAN       FAIR      16  10  77 VRB6      29.51S WCI   7
BUFFALO        FAIR      40  16  37 NW13      29.50S WCI  32
GILLETTE       FAIR      33  17  51 MISG      29.50F
HULETT         FAIR      30  18  59 SW6       29.53S WCI  24
NEWCASTLE      FAIR      23  14  68 N7        29.57S WCI  15

$$
WYZ014>020-022>026-101>103-191600-
CENTRAL WYOMING

CITY           SKY/WX    TMP DP  RH WIND       PRES   REMARKS
BIG PINEY      CLOUDY     2  -1  88 N6        29.75R WCI  -9
PINEDALE       FAIR      -8 -11  84 NW3       29.75S
DUBOIS         NOT AVBL
LANDER         FAIR       9   5  84 W3        29.64F
RIVERTON       FAIR       3   0  87 NW8       29.66S WCI -10
CASPER         FAIR      33  20  58 SW23G31   29.62F WCI  21
DOUGLAS        FAIR      28  18  66 NW9       29.57F WCI  19

$$
WYZ021-027>030-104>119-191600-
SOUTHERN WYOMING

CITY           SKY/WX    TMP DP  RH WIND       PRES   REMARKS
EVANSTON       CLOUDY    26  14  60 VRB5      29.71S WCI  20
FORT BRIDGER   CLOUDY    12   9  85 CALM      29.74
ROCK SPRINGS   FAIR       3  -1  83 NE5       29.73F WCI  -6
RAWLINS        FAIR      26  17  68 W10       29.73S WCI  16
LARAMIE        FAIR      17   9  70 SW3       29.67S
CHEYENNE       FAIR      37  13  37 W10       29.59F WCI  30
TORRINGTON     FAIR      27  18  69 SE7       29.57S WCI  19

$$




USA.gov is the U.S. government's official web portal to all federal, state and local government web resources and services.